Probability
0 0 0 0 0 0 0 0 0 0 0 0 0 0 0 0 0 0 0 0 0 0 0 0 0 0 0 0 0 0 0 0 0 0 0 0 0 0
0 0 0 0 0 0 0 0 0 0 0 0 0 0 0 0 0 0 0 0 0 0 0 0 0 0 0 0 0 0 0 0 0 0 0 0 0 0
0 0 0 0 0 0 0 0 0 0 0 0 0 0 0 0 0 0 0 0 0 0 0 0 0 0 0 0 0 0 0 0 0 0 0 0 0 0
0 0 0 0 0 0 0 0 0 0 0 0 0 0 0 0 0 0 0 0 0 0 0 0 0 0 0 0 0 0 0 0 0 0 0 0 0 0
0 0 0 0 0 0 0 0 0 0 0 0 0 0 0 0 0 0 0 0 0 0 0 0 0 0 0 0 0 0 0 0 0 0 0 0 0 0
0 0 0 0 0 0 0 0 0 0 0 0 0 0 0 0 0 0 0 0 0 0 0 0 0 0 0 0 0 0 0 0 0 0 0 0 0 0
0 0 0 0 0 0 0 0 0 0 0 0 0 0 0 0 0 0 0 0 0 0 0 0 0 0 0 0 0 0 0 0 0 0 0 0 0 0
0 0 0 0 0 0 0 0 0 0 0 0 0 0 0 0 0 0 0 0 0 0 0 0 0 0 0 0 0 0 0 0 0 0 0 0 0 0
0 0 0 0 0 0 0 0 0 0 0 0 0 0 0 0 0 0 0 0 0 0 0 0 0 0 0 0 0 0 0 0 0 0 0 0 0 0
0 0 0 0 0 0 0 0 0 0 0 0 0 0 0 0 0 0 0 0 0 0 0 0 0 0 0 0 0 0 0 0 0 0 0 0 0 0
0 0 0 0 0 0 0 0 0 0 0 0 0 0 0 0 0 0 0 0 0 0 0 0 0 0 0 0 0 0 0 0 0 0 0 0 0 0
0 0 0 0 0 0 0 0 0 0 0 0 0 0 0 0 0 0 0 0 0 0 0 0 0 0 0 0 0 0 0 0 0 0 0 0 0 0
0 0 0 0 0 0 0 0 0 0 0 0 0 0 0 0 0 0 0 0 0 0 0 0 0 0 0 0 0 0 0 0 0 0 0 0 0 0
0 0 0 0 0 0 0 0 0 0 0 0 0 0 0 0 0 0 0 0 0 0 0 0 0 0 0 0 0 0 0 0 0 0 0 0 0 0
0 0 0 0 0 0 0 0 0 0 0 0 0 0 0 0 0 0 0 0 0 0 0 0 0 0 0 0 0 0 0 0 0 0 0 0 0 0
0 0 0 0 0 0 0 0 0 0 0 0 0 0 0 0 0 0 0 0 0 0 0 0 0 0 0 0 0 0 0 0 0 0 0 0 0 0
0 0 0 0 0 0 0 0 0 0 0 0 0 0 0 0 0 0 0 0 0 0 0 0 0 0 0 0 0 0 0 0 0 0 0 0 0 0
0 0 0 0 0 0 0 0 0 0 0 0 0 0 0 0 0 0 0 0 0 0 0 0 0 0 0 0 0 0 0 0 0 0 0 0 0 0
0 0 0 0 0 0 0 0 0 0 0 0 0 0 0 0 0 0 0 0 0 0 0 0 0 0 0 0 0 0 0 0 0 0 0 0 0 0
0 0 0 0 0 0 0 0 0 0 0 0 0 0 0 0 0 0 0 0 0 0 0 0 0 0 0 0 0 0 0 0 0 0 0 0 0 0
0 0 0 0 0 0 0 0 0 0 0 0 0 0 0 0 0 0 0 0 0 0 0 0 0 0 0 0 0 0 0 0 0 0 0 0 0 0
0 0 0 0 0 0 0 0 0 0 0 0 0 0 0 0 0 0 0 0 0 0 0 0 0 0 0 0 0 0 0 0 0 0 0 0 0 0
0 0 0 0 0 0 0 0 0 0 0 0 0 0 0 0 0 0 0 0 0 0 0 0 0 0 0 0 0 0 0 0 0 0 0 0 0 0
Wind_Speed
8 8 7 6 6 6 5 6 6 6 7 5 4 6 5 5 7 7 7 12 14 14 14 14 14 13 13 12 11 11 11 10 10 10 11 11 11 11
6 8 8 6 6 6 6 6 6 6 6 5 5 4 6 6 8 7 8 12 14 14 14 14 14 14 13 13 12 12 11 11 11 11 12 12 12 11
7 8 8 7 6 6 5 6 6 5 6 4 3 3 5 6 6 6 6 7 8 14 15 15 14 14 14 13 13 13 12 12 12 12 12 12 12 11
8 8 8 6 7 6 5 7 6 6 5 5 3 3 5 6 6 6 5 6 6 11 14 15 15 14 14 14 13 13 12 12 12 12 12 12 11 11
8 8 8 7 8 6 7 7 6 5 4 4 4 3 3 4 4 4 5 4 5 8 12 13 14 14 14 14 14 13 13 12 12 11 11 11 11 11
8 8 8 9 9 8 7 8 6 5 5 5 4 3 3 3 3 4 4 4 4 4 6 8 11 13 13 14 14 13 13 13 13 12 11 10 10 10
8 8 9 10 11 9 7 7 7 6 5 5 4 3 4 4 5 4 5 3 3 3 4 4 5 5 7 11 12 13 13 13 13 12 11 10 9 9
8 8 8 9 10 12 12 12 11 10 8 6 5 6 7 5 4 4 4 3 4 3 4 4 4 5 5 5 10 12 13 13 12 12 11 10 9 9
7 7 7 7 8 8 9 10 11 12 12 10 9 9 8 8 7 6 6 5 5 3 3 4 4 5 5 6 11 12 12 12 11 11 10 9 9 8
8 8 8 8 8 8 7 7 8 9 10 9 9 9 8 7 8 7 6 4 2 2 3 4 3 4 3 4 9 11 10 10 10 10 9 8 8 8
7 8 8 8 10 10 8 7 7 6 8 9 9 8 9 9 7 4 4 4 4 3 3 3 3 2 2 3 5 9 9 8 8 9 8 8 7 6
6 7 10 10 11 11 8 8 8 6 5 5 6 6 6 8 9 7 7 6 3 3 4 4 3 2 1 2 2 2 4 6 8 8 7 7 6 4
5 5 6 10 10 11 9 8 9 6 5 5 5 5 4 5 5 4 5 5 5 4 5 4 3 3 2 1 1 2 2 2 3 4 5 6 6 4
6 5 5 8 9 10 9 9 9 7 4 4 5 5 5 4 4 4 4 3 3 4 6 6 4 5 4 2 2 1 1 2 2 2 2 4 5 5
5 8 9 8 7 7 9 9 8 5 5 5 6 5 4 4 4 3 2 1 0 1 3 4 4 4 3 3 3 2 1 1 2 2 2 2 3 3
5 7 8 7 5 6 6 6 5 5 5 5 4 3 3 3 3 3 3 2 1 0 1 2 4 5 3 2 3 3 2 3 3 2 2 1 1 2
6 4 3 3 3 3 3 3 3 4 4 3 3 4 4 3 3 3 3 2 3 3 2 2 3 3 3 3 3 3 3 2 3 3 2 1 1 2
6 4 3 3 3 3 3 3 3 4 4 4 4 4 4 4 3 2 3 3 3 3 4 4 4 3 2 3 1 3 3 2 2 2 2 2 1 1
4 3 3 3 3 3 3 3 3 4 4 4 4 4 4 4 4 3 3 3 3 3 4 4 4 4 4 2 1 0 3 3 2 2 2 1 1 1
3 3 3 3 3 3 3 3 3 3 4 4 4 4 4 4 4 4 4 4 4 4 3 3 3 4 4 4 3 1 2 3 3 3 2 2 2 2
2 3 3 3 2 2 2 2 3 3 4 4 4 4 4 4 4 4 4 5 5 4 5 4 3 5 4 5 4 2 2 3 3 3 3 3 2 1
3 3 2 2 2 2 2 2 2 3 3 3 3 4 4 4 5 5 5 5 4 4 4 3 4 4 3 4 5 4 3 3 5 6 4 3 3 3
3 3 2 2 2 1 1 2 2 3 3 3 3 3 4 4 4 4 5 5 5 5 5 5 4 3 3 4 5 5 5 4 3 3 3 3 4 3
Wind_Direction
229 229 230 227 220 217 214 203 202 223 231 220 215 208 203 205 208 211 214 217 218 220 220 220 220 222 224 225 229 233 236 238 242 245 249 253 259 264
229 230 232 231 224 218 217 218 214 216 233 216 215 207 201 210 210 213 218 216 218 220 221 220 221 221 221 222 225 230 234 237 240 244 248 252 257 262
233 233 236 232 229 221 217 218 220 217 233 236 215 205 203 211 213 215 216 216 218 218 219 220 220 220 221 221 224 229 233 237 239 242 247 251 256 260
231 230 235 233 229 223 218 222 221 218 217 229 229 213 216 212 211 212 216 216 216 219 218 219 219 220 221 223 224 227 231 235 238 239 244 250 256 260
231 229 231 230 232 226 220 222 223 222 213 209 226 220 218 209 209 216 218 220 219 220 216 218 220 221 222 223 224 226 228 231 234 235 238 244 252 258
233 232 231 229 231 224 220 219 216 216 210 203 212 210 212 211 203 211 224 218 224 218 219 221 222 223 224 225 225 226 227 229 231 231 233 238 245 252
236 235 235 233 235 229 225 216 209 214 208 205 211 214 211 199 208 209 222 224 235 216 214 220 217 222 223 228 226 226 228 228 228 229 230 234 240 247
239 239 237 232 232 232 230 223 214 210 208 207 214 213 217 213 209 206 208 213 241 209 204 232 209 224 226 223 224 225 228 227 226 227 229 232 237 244
240 240 245 240 233 226 226 225 222 219 212 207 211 214 209 205 197 207 214 218 238 208 194 239 217 229 227 225 221 221 224 225 224 225 228 230 236 242
239 235 238 237 230 223 224 228 226 223 218 216 215 215 213 203 200 208 211 225 247 219 196 232 226 231 231 221 220 217 219 222 222 223 226 230 236 241
244 237 234 234 230 223 221 228 233 235 227 221 219 216 209 207 198 181 186 197 235 231 200 204 213 231 234 228 221 214 215 217 221 223 226 229 232 234
253 240 233 236 231 220 216 217 226 231 220 214 210 205 202 200 199 200 196 201 217 224 199 184 185 165 233 246 224 207 208 218 220 224 226 226 224 215
261 251 237 234 232 226 227 225 227 222 213 209 205 200 196 199 202 203 206 205 212 225 188 172 172 171 180 216 253 215 193 201 206 219 225 226 220 203
267 265 248 230 231 234 237 234 223 217 205 201 201 204 200 199 198 198 201 213 221 219 191 178 173 176 169 188 219 216 210 195 181 201 212 215 213 210
273 278 275 247 240 234 235 228 214 204 192 200 206 209 202 189 177 173 170 163 140 233 186 180 169 169 172 181 181 181 190 210 188 183 195 200 198 188
287 288 280 250 238 237 235 222 213 202 196 200 198 191 181 178 181 180 188 178 170 201 127 148 160 161 166 163 164 177 180 187 184 184 184 199 201 193
293 285 279 245 224 225 226 220 206 195 197 184 184 182 183 182 185 182 187 184 189 181 154 110 97 98 107 140 157 174 170 173 173 161 156 195 226 205
284 261 260 253 237 229 222 217 207 199 193 187 189 188 186 185 183 181 181 187 187 181 166 156 142 116 78 35 93 169 162 162 156 155 151 164 226 220
267 253 250 249 250 235 218 215 213 198 185 186 190 194 188 184 182 186 187 185 180 174 167 165 165 157 156 172 2 93 159 152 147 150 147 139 183 218
245 245 254 254 257 239 214 213 206 189 184 185 187 192 190 186 185 191 193 183 170 157 157 167 177 173 169 162 149 114 139 150 150 151 127 86 75 77
270 259 254 252 253 248 224 212 207 193 184 181 185 189 189 184 188 188 183 172 161 161 170 178 166 132 109 103 102 96 79 93 123 144 136 116 96 86
278 269 265 260 253 247 230 211 207 190 179 180 185 187 188 186 184 181 175 170 166 160 150 133 128 122 117 131 134 127 108 82 76 81 86 126 153 167
280 273 265 256 254 243 240 220 207 199 186 183 188 192 188 181 176 171 165 159 150 144 136 133 128 115 113 125 129 122 117 109 95 82 62 75 93 108